Location: Northam
(31.6525°S, 116.6655°E)
Time: 22:36:35
(UTC+08:00)

Vanguard 1 Rocket - Visible Passes

Search period start: 22 June 2021 00:00
Search period end: 02 July 2021 00:00
Orbit: 651 x 4225 km, 34.3° (Epoch: 21 June)

Date Brightness Start Highest point End Pass type
(mag) Time Alt. Az. Time Alt. Az. Time Alt. Az.
22 Jun 12.0 04:13:11 10° N 04:30:41 23° NE 04:46:04 10° E visible
22 Jun 11.1 06:37:17 10° NW 07:01:58 55° NNE 07:18:02 10° ESE visible
23 Jun 12.1 03:07:57 10° NNE 03:16:24 12° NE 03:24:41 10° ENE visible
23 Jun 11.4 05:24:11 10° NNW 05:47:28 42° NE 06:05:11 10° E visible
24 Jun 11.7 04:12:53 10° N 04:32:59 30° NE 04:50:41 10° E visible
24 Jun 10.9 06:38:50 10° NW 07:04:27 64° NNE 07:21:11 10° ESE visible
25 Jun 11.9 03:04:24 10° NNE 03:18:47 18° NE 03:32:52 10° E visible
25 Jun 11.2 05:25:17 10° NNW 05:49:46 50° NE 06:08:32 10° ESE visible
26 Jun 11.5 04:13:21 10° NNW 04:35:09 37° NE 04:54:36 10° E visible
26 Jun 10.8 06:40:42 10° NW 07:06:56 72° NNE 07:24:14 10° ESE visible
27 Jun 11.8 03:03:29 10° N 03:20:55 25° NE 03:38:21 10° E visible
27 Jun 11.0 05:26:45 10° NW 05:52:02 59° NNE 06:11:41 10° ESE visible
28 Jun 11.9 01:58:24 10° NNE 02:07:08 13° NE 02:16:14 10° ENE visible
28 Jun 11.3 04:14:20 10° NNW 04:37:13 45° NE 04:58:04 10° ESE visible
28 Jun 10.7 06:42:50 10° WNW 07:09:28 80° NNE 07:27:15 10° ESE visible
29 Jun 11.5 03:03:40 10° N 03:22:53 31° NE 03:42:42 10° E visible
29 Jun 10.9 05:28:33 10° NW 05:54:18 67° NNE 06:14:43 10° ESE visible
30 Jun 11.7 01:55:42 10° NNE 02:09:10 19° NE 02:23:54 10° E visible
30 Jun 11.1 04:15:44 10° NNW 04:39:16 53° NE 05:01:16 10° ESE visible
30 Jun 10.6 06:45:11 10° WNW 07:12:03 86° NNE 07:30:14 10° ESE visible
01 Jul 11.3 03:04:30 10° NNW 03:24:46 39° NE 03:46:24 10° ESE visible
01 Jul 10.8 05:30:37 10° NW 05:56:37 75° NNE 06:17:40 10° ESE visible
